Weather History for KUIN - December, 2013

Change the Weather History Date:

Thursday, December 26, 2013

  Actual Average Record
Temperature  
Mean Temperature 30 °F 27 °F  
Max Temperature 41 °F 35 °F 63 °F (1942)
Min Temperature 19 °F 20 °F -10 °F (1914)
Degree Days  
Heating Degree Days 35 38  
Month to date heating degree days 1001 901  
Since 1 July heating degree days 2134 2001  
Cooling Degree Days 0 0  
Month to date cooling degree days 0 0  
Year to date cooling degree days 1242 1094  
Moisture  
Dew Point 25 °F    
Average Humidity 79    
Maximum Humidity 92    
Minimum Humidity 65    
Precipitation  
Precipitation 0.00 in 0.06 in 0.55 in (1941)
Month to date precipitation 1.08 1.96  
Year to date precipitation 35.67 37.04  
Sea Level Pressure  
Sea Level Pressure 30.27 in    
Wind  
Wind Speed 10 mph (SW)    
Max Wind Speed 20 mph    
Max Gust Speed 24 mph    
Visibility 10 miles    
Events      
T = Trace of Precipitation, MM = Missing Value Source: NWS Daily Summary

Daily Weather History Graph

Daily Weather History Graph

Search for Another Location

Airport or City:

Trip Planner

Search our weather history database for the weather conditions in past years. The results will help you decide how hot, cold, wet, or windy it might be!

Date:

Astronomy

Dec. 26, 2013 Rise Set
Actual Time 7:25 AM CST 4:46 PM CST
Civil Twilight 6:54 AM CST 5:16 PM CST
Nautical Twilight 6:20 AM CST 5:50 PM CST
Astronomical Twilight 5:47 AM CST 6:23 PM CST
Moon 12:54 AM CST (12/26) 12:21 PM CST (12/26)
Length of Visible Light 10h 21m
Length of Day
9h 20m
Last Quarter, 38% of the Moon is Illuminated
Dec 26
Last Quarter
Jan 1
New
Jan 7
First Quarter
Jan 15
Full
Jan 23
Last Quarter

Hourly Weather History & Observations

Time (CST) Temp. Windchill Dew Point Humidity Pressure Visibility Wind Dir Wind Speed Gust Speed Precip Events Conditions
12:54 AM 27.0 °F 18.0 °F 19.9 °F 75% 30.30 in 10.0 mi WNW 9.2 mph - N/A   Clear
1:54 AM 24.1 °F 15.2 °F 18.0 °F 77% 30.31 in 10.0 mi NW 8.1 mph - N/A   Clear
2:54 AM 24.1 °F 19.7 °F 17.1 °F 75% 30.32 in 10.0 mi SW 3.5 mph - N/A   Clear
3:54 AM 23.0 °F 15.8 °F 17.1 °F 78% 30.31 in 10.0 mi SSW 5.8 mph - N/A   Clear
4:54 AM 21.0 °F 12.4 °F 16.0 °F 81% 30.30 in 10.0 mi South 6.9 mph - N/A   Clear
5:54 AM 21.0 °F 12.4 °F 16.0 °F 81% 30.30 in 10.0 mi South 6.9 mph - N/A   Clear
6:54 AM 19.9 °F 13.4 °F 17.1 °F 89% 30.32 in 10.0 mi SSW 4.6 mph - N/A   Clear
7:54 AM 21.9 °F 12.5 °F 19.0 °F 89% 30.31 in 10.0 mi South 8.1 mph - N/A   Clear
8:54 AM 27.0 °F 17.3 °F 21.0 °F 78% 30.31 in 10.0 mi SSW 10.4 mph - N/A   Clear
9:54 AM 30.9 °F 21.2 °F 24.1 °F 76% 30.32 in 10.0 mi SSW 12.7 mph - N/A   Clear
10:54 AM 33.1 °F 23.4 °F 26.1 °F 75% 30.30 in 10.0 mi SSW 13.8 mph - N/A   Clear
11:54 AM 36.0 °F 26.7 °F 28.9 °F 76% 30.27 in 10.0 mi SSW 15.0 mph - N/A   Mostly Cloudy
12:54 PM 41.0 °F 33.5 °F 32.0 °F 70% 30.24 in 10.0 mi SSW 13.8 mph - N/A   Overcast
1:54 PM 39.9 °F 32.9 °F 32.0 °F 73% 30.21 in 10.0 mi SSW 11.5 mph - N/A   Mostly Cloudy
2:54 PM 41.0 °F 32.8 °F 30.9 °F 67% 30.20 in 10.0 mi SSW 16.1 mph - N/A   Overcast
3:54 PM 39.0 °F 30.3 °F 30.9 °F 73% 30.20 in 10.0 mi SSW 16.1 mph - N/A   Overcast
4:54 PM 37.9 °F 29.2 °F 30.0 °F 73% 30.21 in 10.0 mi SSW 15.0 mph - N/A   Clear
5:54 PM 36.0 °F 29.0 °F 30.0 °F 79% 30.23 in 10.0 mi SW 9.2 mph - N/A   Clear
6:54 PM 35.1 °F 28.6 °F 28.9 °F 78% 30.24 in 10.0 mi SW 8.1 mph - N/A   Clear
7:54 PM 34.0 °F 26.6 °F 28.9 °F 82% 30.25 in 10.0 mi SW 9.2 mph - N/A   Clear
8:54 PM 33.1 °F 26.1 °F 28.0 °F 82% 30.26 in 10.0 mi SW 8.1 mph - N/A   Clear
9:54 PM 34.0 °F 27.2 °F 28.0 °F 79% 30.27 in 10.0 mi SW 8.1 mph - N/A   Clear
10:54 PM 34.0 °F 27.2 °F 28.0 °F 79% 30.27 in 10.0 mi WSW 8.1 mph - N/A   Clear
11:54 PM 32.0 °F 25.6 °F 27.0 °F 82% 30.28 in 10.0 mi SW 6.9 mph - N/A   Clear